Location: Tierz
(42.1336°N, 0.3549°W)
Time: 22:28:51
(UTC+00:00)

NOSS 3-4 (A) - Pass Details

Date: 29 October 2020
Orbit: 885 x 1327 km, 63.4° (Epoch: 06 November)

Event Time Altitude Azimuth Distance (km) Brightness Sun altitude
Rises 19:43:47 0° 324° (NW) 3,846 7.2 -31.1°
Reaches altitude 10° 19:46:19 10° 325° (NW) 2,949 6.5 -31.6°
Enters shadow 19:53:07 83° 346° (NNW) 1,191 3.8 -32.8°
